HALOSAT

Last updated on Tue Jan 05 2021 00:02:08 GMT+0000 (Coordinated Universal Time)

1 43549U 98067NX 21004.26885481 .06549442 12287-4 57988-3 0 9992 2 43549 51.6198 324.6215 0004053 189.4390 170.6560 16.38331810141630

Satellite not in orbit